Regional Weather Roundup
Issued by NWS

Home | Current Version | Previous Version | Text Only | Print | Product List | Glossary On
Versions: 1 2 3 4 5 6 7 8 9 10 11 12 13 14 15 16 17 18 19 20 21 22 23 24 25 26 27 28 29 30 31 32 33 34 35 36 37 38 39 40 41 42 43 44 45 46 47 48 49 50
000
ASUS43 KMPX 220310
RWRMN
WEATHER ROUNDUP FOR MINNESOTA
NATIONAL WEATHER SERVICE TWIN CITIES/CHANHASSEN MN
1000 PM CDT SAT APR 21 2018


NOTE: "FAIR" INDICATES FEW OR NO CLOUDS BELOW 12,000 FEET WITH NO
SIGNIFICANT WEATHER AND/OR OBSTRUCTIONS TO VISIBILITY. N/A MEANS
CURRENT SKY AND/OR WEATHER CONDITIONS ARE NOT AVAILABLE.

MNZ060>063-068>070-220400-
   Twin Cities Metro

CITY           SKY/WX    TMP DP  RH WIND       PRES   REMARKS
TWIN CITIES    FAIR      52  34  50 SW6       30.36R
ST PAUL        FAIR      46  36  68 CALM      30.37R
CRYSTAL        FAIR      43  24  47 CALM      30.35R
BLAINE         FAIR      46  21  36 CALM      30.35S
LAKEVILLE      FAIR      43  36  75 CALM      30.36S
EDEN PRAIRIE   FAIR      50  29  44 S3        30.35R
SOUTH ST PAUL  FAIR      48  33  55 CALM      30.36R
LAKE ELMO      FAIR      43  34  70 CALM      30.37R
$$
MNZ001>005-007-008-013>017-022>024-027-028-220400-
   Northwest Minnesota

CITY           SKY/WX    TMP DP  RH WIND       PRES   REMARKS
BEMIDJI        FAIR      46  28  49 S6        30.29S
HALLOCK        FAIR      46  43  87 SE9       30.22F
ROSEAU         FAIR      46  41  81 CALM      30.26S
WARROAD        FAIR      46  41  81 SW3       30.27S
THIEF RVR FALL FAIR      48  38  68 S6        30.28R
CROOKSTON      FAIR      50  41  71 S10       30.27R
FOSSTON        FAIR      43  34  70 S6        30.29S
DETROIT LAKES  FAIR      46  34  61 CALM      30.31R
MOORHEAD       FAIR      48  41  76 SE10      30.29R
PARK RAPIDS    FAIR      48  32  53 S5        30.30R
MAHNOMEN       FAIR      42  35  76 S7        30.29R
$$
MNZ006-009>011-018-025>026-220400-
   North Central Minnesota

CITY           SKY/WX    TMP DP  RH WIND       PRES   REMARKS
BAUDETTE       FAIR      47  34  60 S5        30.27R
FLAG ISLAND    FAIR      43  27  52 CALM      30.26R
INTL FALLS     FAIR      44  26  49 S5        30.28R
WASKISH        FAIR      39  28  65 SE3       30.29S
BIG FORK       FAIR      37  21  52 CALM      30.31R
LONGVILLE      FAIR      36  25  64 CALM      30.32R
GRAND RAPIDS   FAIR      40  23  50 S6        30.34R
CRANE LAKE     FAIR      30  21  69 CALM      30.32R
ORR            FAIR      45  16  31 CALM      30.29R
COOK           FAIR      37  25  60 CALM      30.32R
WALKER         FAIR      44  27  51 CALM      30.30S
$$
MNZ012-019>021-037-220400-
   Northeast Minnesota

CITY           SKY/WX    TMP DP  RH WIND       PRES   REMARKS
DULUTH         FAIR      44  21  40 CALM      30.34R
ELY            FAIR      45   9  23 S3        30.32R
HIBBING        FAIR      43  18  36 S5        30.32R
EVELETH        FAIR      37  19  48 CALM      30.34R
DULUTH HARBOR  FAIR      39  28  65 CALM      30.36R
TWO HARBORS    FAIR      36  21  55 CALM      30.33R
SILVER BAY     FAIR      34  21  60 CALM      30.34R
GRAND MARAIS     N/A     32  24  72 CALM      30.36S
G MARAIS ARPRT FAIR      34  12  40 CALM      30.35S
$$
MNZ029>031-032-039>041-046>048-054>057-064-220400-
   West Central Minnesota

CITY           SKY/WX    TMP DP  RH WIND       PRES   REMARKS
FERGUS FALLS   FAIR      45  36  70 SE7       30.29S
WHEATON        CLEAR     46  37  71 S12       30.33R
MORRIS         CLEAR     43  37  81 S6        30.32R
ALEXANDRIA     FAIR      46  35  65 SW6       30.33R
ELBOW LAKE     FAIR      43  35  74 E3        30.32R
WADENA         FAIR      43  34  70 CALM      30.32R
GLENWOOD       FAIR      43  36  75 S7        30.34R
APPLETON       CLEAR     45  36  70 S6        30.33R
BENSON         CLEAR     43  36  75 S6        30.35S
ORTONVILLE     CLEAR     41  37  87 S5        30.33R
MADISON        PTCLDY    43  37  81 CALM      30.32F
WILLMAR        FAIR      43  37  81 CALM      30.37R
$$
MNZ033>034-036-042>043-049>051-058-059-220400-
   Central Minnesota

CITY           SKY/WX    TMP DP  RH WIND       PRES   REMARKS
ST CLOUD       FAIR      40  31  70 CALM      30.34R
SAUK CENTRE    FAIR      42  36  77 S5        30.34R
PAYNESVILLE    FAIR      46  35  64 S6        30.35R
AITKIN         FAIR      34  21  60 CALM      30.33S
PINE RIVER     FAIR      37  27  65 CALM      30.35R
BRAINERD       FAIR      43  29  57 SE5       30.33S
STAPLES        FAIR      45  28  53 S3        30.32S
LONG PRAIRIE   FAIR      43  34  70 CALM      30.33R
LITTLE FALLS   FAIR      43  27  52 E3        30.34S
LITCHFIELD     FAIR      45  36  70 CALM      30.36R
BUFFALO        FAIR      42  32  68 CALM      30.36S
MAPLE LAKE     FAIR      39  32  77 CALM      30.36R
HUTCHINSON     FAIR      40  37  88 CALM      30.36S
$$
MNZ037-044-045-052-053-220400-
   East Central Minnesota

CITY           SKY/WX    TMP DP  RH WIND       PRES   REMARKS
PRINCETON      FAIR      37  28  70 CALM      30.36R
MORA           FAIR      36  27  69 CALM      30.37S
CAMBRIDGE      FAIR      41  27  56 CALM      30.36R
RUSH CITY      FAIR      39  27  60 CALM      30.36S
MOOSE LAKE     FAIR      37  18  44 CALM      30.33S
HINCKLEY       FAIR      36  25  64 CALM      30.35S
CLOQUET        FAIR      37  10  32 CALM      30.34S
MCGREGOR       FAIR      39  23  52 CALM      30.35R
$$
MNZ071>073-080-081-089-090-097-098-220400-
   Southwest Minnesota

CITY           SKY/WX    TMP DP  RH WIND       PRES   REMARKS
MONTEVIDEO     CLOUDY    41  36  81 S3        30.33F
GRANITE FALLS  CLOUDY    44  37  77 E3        30.34F
CANBY          CLEAR     38  36  89 CALM      30.32F
MARSHALL       CLOUDY    40  31  70 S9        30.32F
REDWOOD FALLS  CLOUDY    44  35  70 CALM      30.33S
OLIVIA         PTCLDY    43  36  75 CALM      30.33F
PIPESTONE      CLEAR    N/A N/A N/A SE7       30.31R
WINDOM         CLOUDY    37  21  52 E5        30.33S
WORTHINGTON    CLOUDY    37  34  89 E3        30.32S
JACKSON        CLOUDY    37  32  81 E8        30.34S
TRACY          CLOUDY    39  33  80 S6        30.32S
SLAYTON        CLOUDY    37  32  84 SE6       30.32S
$$
MNZ065>067-074>077-082>085-091>093-220400-
   South Central Minnesota

CITY           SKY/WX    TMP DP  RH WIND       PRES   REMARKS
MANKATO        CLOUDY    47  36  65 SE6       30.36R
NEW ULM        CLOUDY    45  34  65 CALM      30.35R
ST JAMES       PTCLDY    37  34  87 SE3       30.36S
FAIRMONT       CLEAR     38  34  85 E3        30.35R
GLENCOE        FAIR      44  34  67 CALM      30.35S
OWATONNA       CLOUDY    45  37  76 E3        30.36R
WASECA         CLOUDY    41  36  81 E7        30.37R
ALBERT LEA     FAIR      43  32  65 SE5       30.36R
$$
MNZ078>079-086>088-094>096-220400-
   Southeast Minnesota

CITY           SKY/WX    TMP DP  RH WIND       PRES   REMARKS
ROCHESTER      CLOUDY    44  35  70 SE5       30.36S
RED WING       FAIR      39  28  65 CALM      30.36R
STANTON        FAIR      42  34  73 CALM      30.35S
DODGE CENTER   CLOUDY    43  36  75 SE5       30.37R
WINONA         CLOUDY    46  36  66 CALM      30.35R
AUSTIN         FAIR      39  34  81 E3        30.36S
PRESTON        MOCLDY    46  32  58 S5        30.37R
$$
ABBREVIATIONS USED IN REMARKS
   TC - TEMPERATURES IN CELSIUS
  WCI - WIND CHILL INDEX
   HX - HEAT INDEX
  VSB - VISIBILITY
$$




USA.gov is the U.S. government's official web portal to all federal, state and local government web resources and services.